CW5689 Weather Reports


Display with metric or nautical units.
time (UTC)temp
F
wind
direction
speed
MPH
gust
MPH
rain 1hr
in
rain 24hr
in
rain mn
in
humidity
%
barometer
mb
20260503220032 71 224 5.0 16.0 0.00 0.00 0.00 22 1004.3
20260503215518 71 286 5.0 19.0 0.00 0.00 0.00 23 1004.4
20260503215018 71 342 6.0 19.0 0.00 0.00 0.00 25 1004.4
20260503214537 71 251 7.0 19.0 0.00 0.00 0.00 22 1004.4
20260503214017 71 327 3.0 15.0 0.00 0.00 0.00 24 1004.4
20260503213517 71 232 7.0 16.0 0.00 0.00 0.00 26 1004.3
20260503213037 71 227 5.0 16.0 0.00 0.00 0.00 27 1004.4
20260503212521 71 271 5.0 16.0 0.00 0.00 0.00 28 1004.5
20260503212018 71 27 5.0 17.0 0.00 0.00 0.00 27 1004.3
20260503211533 71 253 1.0 17.0 0.00 0.00 0.00 30 1004.3
20260503211020 71 278 9.0 17.0 0.00 0.00 0.00 26 1004.5
20260503210517 71 307 4.0 12.0 0.00 0.00 0.00 27 1004.4
20260503210044 70 301 5.0 12.0 0.00 0.00 0.00 28 1004.4
20260503205519 70 307 2.0 13.0 0.00 0.00 0.00 29 1004.4
20260503205018 70 280 5.0 13.0 0.00 0.00 0.00 27 1004.4
20260503204541 70 359 4.0 13.0 0.00 0.00 0.00 30 1004.5
20260503204020 70 280 4.0 18.0 0.00 0.00 0.00 27 1004.6
20260503203519 70 350 7.0 18.0 0.00 0.00 0.00 30 1004.6
20260503203038 70 288 3.0 15.0 0.00 0.00 0.00 28 1004.6
20260503202519 70 245 7.0 15.0 0.00 0.00 0.00 28 1004.8
20260503202017 70 267 5.0 12.0 0.00 0.00 0.00 29 1004.8
20260503201536 71 267 4.0 15.0 0.00 0.00 0.00 35 1004.9
20260503201017 71 0 7.0 15.0 0.00 0.00 0.00 26 1004.7
20260503200519 71 300 5.0 13.0 0.00 0.00 0.00 26 1004.8
20260503200043 71 284 6.0 15.0 0.00 0.00 0.00 26 1004.9
20260503195517 71 323 4.0 15.0 0.00 0.00 0.00 27 1004.9
20260503195017 71 290 6.0 15.0 0.00 0.00 0.00 26 1005.1
20260503194535 71 283 6.0 13.0 0.00 0.00 0.00 26 1005.0
20260503194015 71 308 6.0 14.0 0.00 0.00 0.00 30 1005.2
20260503193515 71 342 7.0 14.0 0.00 0.00 0.00 31 1005.1
20260503193035 71 26 7.0 15.0 0.00 0.00 0.00 34 1005.2
20260503192514 71 272 4.0 15.0 0.00 0.00 0.00 37 1005.2
20260503192020 71 313 5.0 15.0 0.00 0.00 0.00 34 1005.3
20260503191532 71 339 5.0 15.0 0.00 0.00 0.00 34 1005.2
20260503191022 71 286 5.0 14.0 0.00 0.00 0.00 34 1005.1
20260503190514 71 286 4.0 18.0 0.00 0.00 0.00 36 1005.3
20260503190043 71 9 6.0 18.0 0.00 0.00 0.00 30 1005.2
20260503185517 71 43 4.0 12.0 0.00 0.00 0.00 35 1005.3
20260503185021 71 331 6.0 23.0 0.00 0.00 0.00 32 1005.3
20260503184536 71 337 12.0 23.0 0.00 0.00 0.00 29 1005.3
20260503184018 71 263 6.0 14.0 0.00 0.00 0.00 31 1005.4
20260503183516 71 340 5.0 16.0 0.00 0.00 0.00 37 1005.5
20260503183032 72 350 5.0 16.0 0.00 0.00 0.00 34 1005.4
20260503182513 71 335 7.0 16.0 0.00 0.00 0.00 30 1005.3
20260503182017 71 326 6.0 14.0 0.00 0.00 0.00 34 1005.4
20260503181534 71 294 7.0 14.0 0.00 0.00 0.00 36 1005.4
20260503181018 71 290 4.0 17.0 0.00 0.00 0.00 41 1005.6
20260503180517 71 318 6.0 17.0 0.00 0.00 0.00 37 1005.5
20260503180034 71 333 6.0 13.0 0.00 0.00 0.00 37 1005.4
20260503175515 71 188 4.0 17.0 0.00 0.00 0.00 36 1005.5
20260503175018 70 0 7.0 17.0 0.00 0.00 0.00 37 1005.4
20260503174533 70 198 4.0 17.0 0.00 0.00 0.00 39 1005.5
20260503174017 70 26 2.0 17.0 0.00 0.00 0.00 42 1005.7
20260503173514 70 7 6.0 17.0 0.00 0.00 0.00 39 1005.8
20260503173049 70 332 5.0 19.0 0.00 0.00 0.00 42 1005.7
20260503172517 70 293 7.0 19.0 0.00 0.00 0.00 34 1005.7
20260503172016 69 285 6.0 18.0 0.00 0.00 0.00 37 1005.8
20260503171608 69 328 3.0 13.0 0.00 0.00 0.00 37 1005.8
20260503171535 69 328 3.0 13.0 0.00 0.00 0.00 37 1005.8
20260503171015 69 350 5.0 13.0 0.00 0.00 0.00 35 1005.9
20260503170518 68 350 6.0 15.0 0.00 0.00 0.00 35 1005.8
20260503150516 64 40 3.0 5.0 0.00 0.00 0.00 56 1005.5
20260503131018 59 219 3.0 8.0 0.00 0.00 0.00 49 1005.2
20260503130518 58 209 3.0 8.0 0.00 0.00 0.00 50 1005.3
20260503110517 53 0 1.0 6.0 0.00 0.00 0.00 55 1004.5
20260503081549 56 219 2.0 9.0 0.00 0.00 0.00 54 1005.3
20260503081017 56 199 3.0 9.0 0.00 0.00 0.00 53 1005.2
20260503080517 56 0 2.0 9.0 0.00 0.00 0.00 54 1005.3
20260503072517 56 145 2.0 6.0 0.00 0.00 0.00 54 1006.1
20260503072020 56 209 3.0 6.0 0.00 0.00 0.00 54 1006.1
20260503071541 56 197 3.0 8.0 0.00 0.00 0.00 53 1006.2
20260503071019 55 251 3.0 8.0 0.00 0.00 0.00 53 1006.3
20260503070517 55 195 3.0 10.0 0.00 0.00 0.00 53 1006.3
20260503055023 56 207 2.0 6.0 0.00 0.00 0.00 53 1007.6
20260503054539 56 193 2.0 8.0 0.00 0.00 0.00 53 1007.6
20260503054019 56 170 2.0 8.0 0.00 0.00 0.00 53 1007.6
20260503053516 57 181 1.0 7.0 0.00 0.00 0.00 53 1007.6
20260503053030 57 182 2.0 7.0 0.00 0.00 0.00 52 1007.7
20260503052524 57 184 1.0 3.0 0.00 0.00 0.00 52 1007.7
20260503052017 57 0 0.0 4.0 0.00 0.00 0.00 51 1007.8
20260503051530 57 0 0.0 4.0 0.00 0.00 0.00 51 1007.8
20260503051016 58 184 2.0 4.0 0.00 0.00 0.00 50 1007.9
20260503050517 58 182 1.0 4.0 0.00 0.00 0.00 50 1008.0
20260503050032 58 180 1.0 4.0 0.00 0.00 0.00 49 1007.9
20260503045517 58 0 0.0 4.0 0.00 0.00 0.00 49 1008.0
20260503045020 58 0 0.0 5.0 0.00 0.00 0.00 48 1008.1
20260503044541 58 180 2.0 5.0 0.00 0.00 0.00 48 1008.2
20260503044016 58 183 2.0 4.0 0.00 0.00 0.00 48 1008.2
20260503043516 59 190 1.0 6.0 0.00 0.00 0.00 48 1008.4
20260503043031 59 188 1.0 6.0 0.00 0.00 0.00 47 1008.4
20260503042516 59 170 2.0 7.0 0.00 0.00 0.00 47 1008.6
20260503042016 59 168 2.0 7.0 0.00 0.00 0.00 47 1008.6
20260503041538 59 198 2.0 7.0 0.00 0.00 0.00 47 1008.8
20260503041016 60 172 1.0 7.0 0.00 0.00 0.00 47 1008.6
20260503040515 60 0 1.0 7.0 0.00 0.00 0.00 46 1008.7
20260503040033 60 205 1.0 4.0 0.00 0.00 0.00 45 1008.9
20260503035518 60 174 2.0 4.0 0.00 0.00 0.00 44 1008.9
20260503035018 60 201 2.0 4.0 0.00 0.00 0.00 44 1009.0
20260503034535 60 195 1.0 4.0 0.00 0.00 0.00 43 1009.2
20260503034016 61 0 1.0 4.0 0.00 0.00 0.00 43 1009.2
20260503033521 61 195 1.0 6.0 0.00 0.00 0.00 42 1009.3
20260503033031 61 0 1.0 6.0 0.00 0.00 0.00 41 1009.2
20260503032516 61 201 2.0 6.0 0.00 0.00 0.00 41 1009.4
20260503032016 62 0 2.0 6.0 0.00 0.00 0.00 41 1009.5
20260503031539 62 208 2.0 7.0 0.00 0.00 0.00 41 1009.6
20260503031016 62 205 3.0 9.0 0.00 0.00 0.00 41 1009.7
20260503030522 62 257 4.0 9.0 0.00 0.00 0.00 40 1009.8
20260503030034 62 205 4.0 11.0 0.00 0.00 0.00 39 1009.8
20260503025518 62 241 6.0 11.0 0.00 0.00 0.00 40 1010.0
20260503025016 62 246 3.0 13.0 0.00 0.00 0.00 40 1010.1
20260503024535 62 238 6.0 13.0 0.00 0.00 0.00 39 1010.2
20260503024017 62 234 4.0 11.0 0.00 0.00 0.00 40 1010.3
20260503023516 62 253 5.0 13.0 0.00 0.00 0.00 40 1010.3
20260503023037 62 236 6.0 13.0 0.00 0.00 0.00 40 1010.3
20260503022516 61 260 3.0 8.0 0.00 0.00 0.00 40 1010.2
20260503022020 61 231 4.0 10.0 0.00 0.00 0.00 41 1010.2
20260503021538 61 197 3.0 10.0 0.00 0.00 0.00 42 1010.2
20260503021017 61 238 5.0 10.0 0.00 0.00 0.00 41 1010.2
20260503020516 61 233 4.0 10.0 0.00 0.00 0.00 42 1010.2
20260503020032 61 205 4.0 9.0 0.00 0.00 0.00 42 1010.1
20260503015519 61 249 3.0 8.0 0.00 0.00 0.00 41 1010.1
20260503015017 61 210 2.0 8.0 0.00 0.00 0.00 42 1010.1
20260503014530 62 211 3.0 8.0 0.00 0.00 0.00 41 1010.1
20260503014018 62 197 3.0 9.0 0.00 0.00 0.00 41 1010.1
20260503013520 62 237 3.0 9.0 0.00 0.00 0.00 41 1010.1
20260503013037 62 203 2.0 7.0 0.00 0.00 0.00 41 1010.1
20260503012517 62 159 2.0 6.0 0.00 0.00 0.00 41 1010.2
20260503012020 62 237 3.0 5.0 0.00 0.00 0.00 42 1010.1
20260503011536 63 216 2.0 5.0 0.00 0.00 0.00 41 1010.2
20260503011016 63 218 2.0 5.0 0.00 0.00 0.00 40 1010.2
20260503010516 63 0 1.0 8.0 0.00 0.00 0.00 40 1010.3
20260503010035 63 222 1.0 8.0 0.00 0.00 0.00 40 1010.3
20260503005518 63 246 3.0 8.0 0.00 0.00 0.00 39 1010.5
20260503005020 64 288 3.0 16.0 0.00 0.00 0.00 38 1010.6
20260503004533 64 234 6.0 17.0 0.00 0.00 0.00 39 1010.6
20260503004017 64 212 5.0 17.0 0.00 0.00 0.00 36 1010.7
20260503003516 64 247 3.0 9.0 0.00 0.00 0.00 38 1010.6
20260503003035 64 261 3.0 9.0 0.00 0.00 0.00 35 1010.4
20260503002520 64 238 3.0 8.0 0.00 0.00 0.00 36 1010.3
20260503002017 64 199 2.0 5.0 0.00 0.00 0.00 35 1010.4
20260503001534 64 228 1.0 6.0 0.00 0.00 0.00 35 1010.4
20260503001017 64 0 1.0 6.0 0.00 0.00 0.00 36 1010.4
20260503000516 64 186 0.0 8.0 0.00 0.00 0.00 37 1010.6
20260503000044 65 227 3.0 8.0 0.00 0.00 0.00 37 1010.6
20260502235513 65 210 2.0 6.0 0.00 0.00 0.00 37 1010.7
20260502235016 65 0 1.0 8.0 0.00 0.00 0.00 35 1010.8
20260502234534 65 267 1.0 19.0 0.00 0.00 0.00 35 1010.8
20260502234017 65 232 5.0 19.0 0.00 0.00 0.00 35 1010.8
20260502233520 65 220 6.0 11.0 0.00 0.00 0.00 34 1010.8
20260502233033 65 275 2.0 8.0 0.00 0.00 0.00 35 1011.0
20260502232518 65 0 2.0 8.0 0.00 0.00 0.00 34 1011.0
20260502232018 65 305 4.0 15.0 0.00 0.00 0.00 36 1011.1
20260502231542 65 253 5.0 15.0 0.00 0.00 0.00 33 1011.1
20260502231019 65 271 2.0 8.0 0.00 0.00 0.00 33 1011.2
20260502230519 65 0 3.0 8.0 0.00 0.00 0.00 33 1011.3
20260502230031 65 207 3.0 14.0 0.00 0.00 0.00 34 1011.2
20260502225518 65 230 4.0 14.0 0.00 0.00 0.00 34 1011.1
20260502225019 65 211 2.0 11.0 0.00 0.00 0.00 33 1011.1
20260502224535 65 262 4.0 11.0 0.00 0.00 0.00 33 1011.2
20260502224018 65 249 4.0 11.0 0.00 0.00 0.00 32 1011.3
20260502223520 65 241 2.0 12.0 0.00 0.00 0.00 34 1011.3
20260502223033 65 194 5.0 12.0 0.00 0.00 0.00 32 1011.4
20260502222518 65 232 6.0 11.0 0.00 0.00 0.00 34 1011.4
20260502222021 65 238 5.0 13.0 0.00 0.00 0.00 33 1011.6
20260502221536 65 238 5.0 13.0 0.00 0.00 0.00 34 1011.5
20260502221019 65 206 5.0 11.0 0.00 0.00 0.00 35 1011.5
20260502220516 65 249 5.0 12.0 0.00 0.00 0.00 34 1011.6